| time (UTC) | temp F | wind direction | speed MPH | gust MPH | rain 1hr in | rain 24hr in | rain mn in | humidity % | barometer mb |
| 20260904162016 | 89 | 169 | 2.0 | 10.0 | 0.00 | 0.00 | 0.00 | 53 | 1019.6 |
| 20260904161530 | 89 | 177 | 5.0 | 10.0 | 0.00 | 0.00 | 0.00 | 52 | 1019.6 |
| 20260904161015 | 89 | 221 | 3.0 | 9.0 | 0.00 | 0.00 | 0.00 | 53 | 1019.6 |
| 20260904160517 | 88 | 183 | 3.0 | 9.0 | 0.00 | 0.00 | 0.00 | 54 | 1019.5 |
| 20260904160031 | 88 | 209 | 5.0 | 11.0 | 0.00 | 0.00 | 0.00 | 55 | 1019.4 |
| 20260904155518 | 88 | 190 | 4.0 | 11.0 | 0.00 | 0.00 | 0.00 | 55 | 1019.5 |
| 20260904155019 | 87 | 211 | 6.0 | 10.0 | 0.00 | 0.00 | 0.00 | 55 | 1019.7 |
| 20260904154519 | 88 | 196 | 5.0 | 8.0 | 0.00 | 0.00 | 0.00 | 55 | 1019.8 |
| 20260904154017 | 88 | 229 | 5.0 | 10.0 | 0.00 | 0.00 | 0.00 | 55 | 1019.8 |
| 20260904153512 | 87 | 254 | 4.0 | 10.0 | 0.00 | 0.00 | 0.00 | 55 | 1019.8 |
| 20260904153034 | 88 | 221 | 5.0 | 8.0 | 0.00 | 0.00 | 0.00 | 55 | 1019.7 |
| 20260904152517 | 87 | 202 | 5.0 | 8.0 | 0.00 | 0.00 | 0.00 | 56 | 1019.7 |
| 20260904152017 | 87 | 226 | 4.0 | 10.0 | 0.00 | 0.00 | 0.00 | 56 | 1019.7 |
| 20260904151537 | 87 | 150 | 4.0 | 9.0 | 0.00 | 0.00 | 0.00 | 57 | 1019.7 |
| 20260904151019 | 87 | 165 | 2.0 | 9.0 | 0.00 | 0.00 | 0.00 | 58 | 1019.7 |
| 20260904150514 | 86 | 196 | 4.0 | 11.0 | 0.00 | 0.00 | 0.00 | 58 | 1019.6 |
| 20260904150035 | 86 | 212 | 4.0 | 10.0 | 0.00 | 0.00 | 0.00 | 58 | 1019.6 |
| 20260904145504 | 86 | 209 | 5.0 | 9.0 | 0.00 | 0.00 | 0.00 | 59 | 1019.5 |
| 20260904145007 | 85 | 128 | 2.0 | 12.0 | 0.00 | 0.00 | 0.00 | 59 | 1019.5 |
| 20260904144516 | 85 | 230 | 4.0 | 12.0 | 0.00 | 0.00 | 0.00 | 60 | 1019.5 |
| 20260904144017 | 85 | 242 | 4.0 | 9.0 | 0.00 | 0.00 | 0.00 | 59 | 1019.4 |
| 20260904143508 | 85 | 186 | 4.0 | 9.0 | 0.00 | 0.00 | 0.00 | 59 | 1019.3 |
| 20260904143042 | 85 | 151 | 3.0 | 7.0 | 0.00 | 0.00 | 0.00 | 61 | 1019.3 |
| 20260904142510 | 84 | 134 | 4.0 | 7.0 | 0.00 | 0.00 | 0.00 | 60 | 1019.3 |
| 20260904142003 | 84 | 222 | 2.0 | 6.0 | 0.00 | 0.00 | 0.00 | 62 | 1019.4 |
| 20260904141514 | 84 | 196 | 3.0 | 6.0 | 0.00 | 0.00 | 0.00 | 63 | 1019.4 |
| 20260904141002 | 83 | 234 | 3.0 | 7.0 | 0.00 | 0.00 | 0.00 | 65 | 1019.3 |
| 20260904140507 | 82 | 238 | 4.0 | 7.0 | 0.00 | 0.00 | 0.00 | 64 | 1019.3 |
| 20260904140007 | 82 | 221 | 3.0 | 5.0 | 0.00 | 0.00 | 0.00 | 66 | 1019.2 |
| 20260904135504 | 81 | 186 | 3.0 | 5.0 | 0.00 | 0.00 | 0.00 | 67 | 1019.3 |
| 20260904135006 | 81 | 182 | 3.0 | 6.0 | 0.00 | 0.00 | 0.00 | 68 | 1019.3 |
| 20260904134514 | 80 | 219 | 3.0 | 6.0 | 0.00 | 0.00 | 0.00 | 69 | 1019.3 |
| 20260904134008 | 80 | 208 | 1.0 | 3.0 | 0.00 | 0.00 | 0.00 | 71 | 1019.3 |
| 20260904133507 | 79 | 143 | 2.0 | 3.0 | 0.00 | 0.00 | 0.00 | 72 | 1019.3 |
| 20260904133035 | 78 | 224 | 2.0 | 3.0 | 0.00 | 0.00 | 0.00 | 72 | 1019.2 |
| 20260904132514 | 78 | 187 | 1.0 | 3.0 | 0.00 | 0.00 | 0.00 | 74 | 1019.1 |
| 20260904132018 | 77 | 188 | 1.0 | 4.0 | 0.00 | 0.00 | 0.00 | 76 | 1019.1 |
| 20260904131525 | 76 | 186 | 1.0 | 4.0 | 0.00 | 0.00 | 0.00 | 78 | 1019.1 |
| 20260904131013 | 75 | 188 | 1.0 | 4.0 | 0.00 | 0.00 | 0.00 | 79 | 1019.0 |
| 20260904130511 | 75 | 214 | 1.0 | 2.0 | 0.00 | 0.00 | 0.00 | 80 | 1019.0 |
| 20260904130006 | 74 | 201 | 1.0 | 2.0 | 0.00 | 0.00 | 0.00 | 81 | 1019.0 |
| 20260904125504 | 74 | 211 | 1.0 | 3.0 | 0.00 | 0.00 | 0.00 | 82 | 1018.9 |
| 20260904125003 | 73 | 238 | 1.0 | 3.0 | 0.00 | 0.00 | 0.00 | 83 | 1018.9 |
| 20260904124511 | 73 | 217 | 1.0 | 2.0 | 0.00 | 0.00 | 0.00 | 84 | 1018.8 |
| 20260904124006 | 72 | 242 | 1.0 | 2.0 | 0.00 | 0.00 | 0.00 | 84 | 1018.8 |
| 20260904123510 | 72 | 242 | 1.0 | 2.0 | 0.00 | 0.00 | 0.00 | 84 | 1018.7 |
| 20260904123014 | 72 | 242 | 1.0 | 2.0 | 0.00 | 0.00 | 0.00 | 85 | 1018.7 |
| 20260904122513 | 72 | 222 | 1.0 | 2.0 | 0.00 | 0.00 | 0.00 | 85 | 1018.7 |
| 20260904122010 | 72 | 222 | 1.0 | 2.0 | 0.00 | 0.00 | 0.00 | 85 | 1018.7 |
| 20260904121524 | 71 | 222 | 1.0 | 1.0 | 0.00 | 0.00 | 0.00 | 85 | 1018.6 |
| 20260904121013 | 71 | 222 | 1.0 | 2.0 | 0.00 | 0.00 | 0.00 | 86 | 1018.6 |
| 20260904120511 | 71 | 222 | 0.0 | 2.0 | 0.00 | 0.00 | 0.00 | 86 | 1018.6 |
| 20260904120040 | 71 | 220 | 1.0 | 2.0 | 0.00 | 0.00 | 0.00 | 86 | 1018.5 |
| 20260904115502 | 71 | 231 | 1.0 | 3.0 | 0.00 | 0.00 | 0.00 | 86 | 1018.5 |
| 20260904115003 | 71 | 225 | 1.0 | 4.0 | 0.00 | 0.00 | 0.00 | 86 | 1018.5 |
| 20260904114512 | 71 | 223 | 1.0 | 4.0 | 0.00 | 0.00 | 0.00 | 86 | 1018.5 |
| 20260904114004 | 71 | 225 | 2.0 | 4.0 | 0.00 | 0.00 | 0.00 | 86 | 1018.5 |
| 20260904113507 | 71 | 227 | 1.0 | 4.0 | 0.00 | 0.00 | 0.00 | 86 | 1018.4 |
| 20260904113013 | 71 | 215 | 2.0 | 3.0 | 0.00 | 0.00 | 0.00 | 86 | 1018.5 |
| 20260904112507 | 71 | 218 | 2.0 | 3.0 | 0.00 | 0.00 | 0.00 | 86 | 1018.5 |
| 20260904112007 | 71 | 182 | 1.0 | 3.0 | 0.00 | 0.00 | 0.00 | 86 | 1018.5 |
| 20260904111521 | 71 | 240 | 2.0 | 3.0 | 0.00 | 0.00 | 0.00 | 86 | 1018.4 |
| 20260904111011 | 71 | 219 | 2.0 | 3.0 | 0.00 | 0.00 | 0.00 | 86 | 1018.4 |
| 20260904110511 | 71 | 183 | 2.0 | 2.0 | 0.00 | 0.00 | 0.00 | 86 | 1018.4 |
| 20260904110026 | 71 | 169 | 1.0 | 4.0 | 0.00 | 0.00 | 0.00 | 86 | 1018.4 |
| 20260904105511 | 71 | 188 | 1.0 | 4.0 | 0.00 | 0.00 | 0.00 | 86 | 1018.4 |
| 20260904105016 | 71 | 217 | 1.0 | 2.0 | 0.00 | 0.00 | 0.00 | 85 | 1018.4 |
| 20260904104531 | 71 | 198 | 1.0 | 2.0 | 0.00 | 0.00 | 0.00 | 85 | 1018.4 |
| 20260904104005 | 71 | 219 | 1.0 | 2.0 | 0.00 | 0.00 | 0.00 | 85 | 1018.3 |
| 20260904103502 | 71 | 209 | 1.0 | 2.0 | 0.00 | 0.00 | 0.00 | 85 | 1018.3 |
| 20260904103010 | 71 | 223 | 1.0 | 2.0 | 0.00 | 0.00 | 0.00 | 85 | 1018.3 |
| 20260904102508 | 72 | 209 | 1.0 | 2.0 | 0.00 | 0.00 | 0.00 | 85 | 1018.3 |
| 20260904102009 | 72 | 221 | 0.0 | 2.0 | 0.00 | 0.00 | 0.00 | 84 | 1018.3 |
| 20260904101521 | 72 | 221 | 1.0 | 3.0 | 0.00 | 0.00 | 0.00 | 84 | 1018.3 |
| 20260904101012 | 72 | 221 | 1.0 | 3.0 | 0.00 | 0.00 | 0.00 | 84 | 1018.3 |
| 20260904100511 | 72 | 228 | 1.0 | 2.0 | 0.00 | 0.00 | 0.00 | 84 | 1018.3 |
| 20260904100023 | 72 | 213 | 1.0 | 2.0 | 0.00 | 0.00 | 0.00 | 84 | 1018.2 |
| 20260904095510 | 72 | 232 | 1.0 | 3.0 | 0.00 | 0.00 | 0.00 | 83 | 1018.1 |
| 20260904095015 | 72 | 225 | 1.0 | 4.0 | 0.00 | 0.00 | 0.00 | 83 | 1018.1 |
| 20260904094528 | 72 | 221 | 1.0 | 4.0 | 0.00 | 0.00 | 0.00 | 83 | 1018.1 |
| 20260904094020 | 72 | 216 | 2.0 | 4.0 | 0.00 | 0.00 | 0.00 | 83 | 1018.1 |
| 20260904093514 | 73 | 209 | 2.0 | 4.0 | 0.00 | 0.00 | 0.00 | 83 | 1018.1 |
| 20260904093008 | 73 | 202 | 3.0 | 4.0 | 0.00 | 0.00 | 0.00 | 82 | 1018.1 |
| 20260904092503 | 73 | 229 | 2.0 | 3.0 | 0.00 | 0.00 | 0.00 | 82 | 1018.0 |
| 20260904092019 | 73 | 216 | 1.0 | 3.0 | 0.00 | 0.00 | 0.00 | 82 | 1018.0 |
| 20260904091519 | 73 | 226 | 2.0 | 4.0 | 0.00 | 0.00 | 0.00 | 82 | 1018.0 |
| 20260904091011 | 73 | 207 | 2.0 | 4.0 | 0.00 | 0.00 | 0.00 | 82 | 1018.0 |
| 20260904090513 | 73 | 198 | 1.0 | 3.0 | 0.00 | 0.00 | 0.00 | 81 | 1018.0 |
| 20260904090024 | 73 | 229 | 2.0 | 4.0 | 0.00 | 0.00 | 0.00 | 81 | 1018.0 |
| 20260904085519 | 73 | 229 | 1.0 | 4.0 | 0.00 | 0.00 | 0.00 | 81 | 1018.0 |
| 20260904085012 | 73 | 219 | 2.0 | 4.0 | 0.00 | 0.00 | 0.00 | 81 | 1018.0 |
| 20260904084527 | 73 | 195 | 1.0 | 4.0 | 0.00 | 0.00 | 0.00 | 81 | 1017.9 |
| 20260904084012 | 73 | 207 | 2.0 | 5.0 | 0.00 | 0.00 | 0.00 | 81 | 1017.9 |
| 20260904083520 | 74 | 204 | 2.0 | 5.0 | 0.00 | 0.00 | 0.00 | 81 | 1017.9 |
| 20260904083031 | 74 | 222 | 2.0 | 5.0 | 0.00 | 0.00 | 0.00 | 81 | 1017.9 |
| 20260904082518 | 74 | 205 | 2.0 | 5.0 | 0.00 | 0.00 | 0.00 | 81 | 1017.9 |
| 20260904082016 | 74 | 233 | 2.0 | 5.0 | 0.00 | 0.00 | 0.00 | 81 | 1017.9 |
| 20260904081512 | 74 | 200 | 2.0 | 5.0 | 0.00 | 0.00 | 0.00 | 81 | 1017.9 |
| 20260904081007 | 74 | 229 | 2.0 | 5.0 | 0.00 | 0.00 | 0.00 | 80 | 1017.9 |
| 20260904080508 | 74 | 223 | 2.0 | 6.0 | 0.00 | 0.00 | 0.00 | 80 | 1017.9 |
| 20260904080016 | 74 | 227 | 2.0 | 6.0 | 0.00 | 0.00 | 0.00 | 80 | 1017.9 |
| 20260904075510 | 74 | 204 | 2.0 | 5.0 | 0.00 | 0.00 | 0.00 | 79 | 1017.9 |
| 20260904075009 | 75 | 200 | 2.0 | 4.0 | 0.00 | 0.00 | 0.00 | 78 | 1017.9 |
| 20260904074525 | 75 | 198 | 1.0 | 3.0 | 0.00 | 0.00 | 0.00 | 78 | 1017.9 |
| 20260904074011 | 75 | 225 | 2.0 | 3.0 | 0.00 | 0.00 | 0.00 | 77 | 1017.9 |
| 20260904073512 | 76 | 226 | 1.0 | 6.0 | 0.00 | 0.00 | 0.00 | 77 | 1017.9 |
| 20260904073026 | 76 | 194 | 2.0 | 6.0 | 0.00 | 0.00 | 0.00 | 77 | 1017.9 |
| 20260904072515 | 76 | 194 | 2.0 | 6.0 | 0.00 | 0.00 | 0.00 | 77 | 1017.8 |
| 20260904072016 | 76 | 228 | 2.0 | 5.0 | 0.00 | 0.00 | 0.00 | 76 | 1017.8 |
| 20260904071534 | 76 | 184 | 2.0 | 5.0 | 0.00 | 0.00 | 0.00 | 76 | 1017.8 |
| 20260904071020 | 77 | 190 | 1.0 | 5.0 | 0.00 | 0.00 | 0.00 | 76 | 1017.9 |
| 20260904070515 | 77 | 224 | 2.0 | 7.0 | 0.00 | 0.00 | 0.00 | 75 | 1017.9 |
| 20260904070015 | 77 | 175 | 3.0 | 7.0 | 0.00 | 0.00 | 0.00 | 75 | 1018.0 |
| 20260904065505 | 77 | 199 | 1.0 | 6.0 | 0.00 | 0.00 | 0.00 | 75 | 1017.9 |
| 20260904065012 | 77 | 209 | 3.0 | 6.0 | 0.00 | 0.00 | 0.00 | 75 | 1018.0 |
| 20260904064524 | 77 | 167 | 2.0 | 5.0 | 0.00 | 0.00 | 0.00 | 75 | 1018.0 |
| 20260904064012 | 77 | 180 | 3.0 | 5.0 | 0.00 | 0.00 | 0.00 | 75 | 1018.0 |
| 20260904063512 | 77 | 208 | 2.0 | 5.0 | 0.00 | 0.00 | 0.00 | 75 | 1018.0 |
| 20260904063028 | 77 | 184 | 1.0 | 5.0 | 0.00 | 0.00 | 0.00 | 75 | 1017.9 |
| 20260904062518 | 77 | 143 | 1.0 | 5.0 | 0.00 | 0.00 | 0.00 | 75 | 1018.0 |
| 20260904062016 | 77 | 221 | 1.0 | 6.0 | 0.00 | 0.00 | 0.00 | 75 | 1018.0 |
| 20260904061528 | 77 | 157 | 2.0 | 6.0 | 0.00 | 0.00 | 0.00 | 75 | 1018.0 |
| 20260904061019 | 77 | 203 | 1.0 | 5.0 | 0.00 | 0.00 | 0.00 | 75 | 1017.9 |
| 20260904060515 | 77 | 153 | 2.0 | 7.0 | 0.00 | 0.00 | 0.00 | 75 | 1017.9 |
| 20260904060039 | 78 | 180 | 2.0 | 9.0 | 0.00 | 0.00 | 0.00 | 74 | 1017.9 |
| 20260904055506 | 78 | 207 | 1.0 | 9.0 | 0.00 | 0.00 | 0.00 | 74 | 1017.9 |
| 20260904055010 | 77 | 211 | 2.0 | 6.0 | 0.00 | 0.00 | 0.00 | 74 | 1017.9 |
| 20260904054532 | 77 | 175 | 3.0 | 11.0 | 0.00 | 0.00 | 0.00 | 74 | 1017.9 |
| 20260904054011 | 77 | 149 | 2.0 | 11.0 | 0.00 | 0.00 | 0.00 | 74 | 1017.8 |
| 20260904053509 | 77 | 111 | 2.0 | 5.0 | 0.00 | 0.00 | 0.00 | 74 | 1017.8 |
| 20260904053004 | 77 | 212 | 2.0 | 5.0 | 0.00 | 0.00 | 0.00 | 74 | 1017.8 |
| 20260904052504 | 77 | 185 | 2.0 | 6.0 | 0.00 | 0.00 | 0.00 | 74 | 1017.8 |
| 20260904052003 | 77 | 192 | 2.0 | 6.0 | 0.00 | 0.00 | 0.00 | 74 | 1017.8 |
| 20260904051505 | 78 | 194 | 2.0 | 6.0 | 0.00 | 0.00 | 0.00 | 73 | 1017.8 |
| 20260904051004 | 78 | 172 | 2.0 | 6.0 | 0.00 | 0.00 | 0.00 | 73 | 1017.8 |
| 20260904050503 | 78 | 208 | 2.0 | 5.0 | 0.00 | 0.00 | 0.00 | 73 | 1017.8 |
| 20260904050011 | 78 | 211 | 2.0 | 5.0 | 0.00 | 0.00 | 0.00 | 73 | 1017.9 |
| 20260904045516 | 78 | 127 | 2.0 | 5.0 | 0.00 | 0.00 | 0.00 | 73 | 1017.9 |
| 20260904045008 | 78 | 160 | 1.0 | 5.0 | 0.00 | 0.00 | 0.00 | 72 | 1017.9 |
| 20260904044533 | 78 | 185 | 2.0 | 5.0 | 0.00 | 0.00 | 0.00 | 72 | 1017.9 |
| 20260904044007 | 78 | 198 | 2.0 | 5.0 | 0.00 | 0.00 | 0.00 | 72 | 1017.9 |
| 20260904043512 | 78 | 180 | 2.0 | 4.0 | 0.00 | 0.00 | 0.00 | 71 | 1017.8 |
| 20260904043034 | 78 | 213 | 2.0 | 4.0 | 0.00 | 0.00 | 0.00 | 71 | 1017.8 |
| 20260904042512 | 78 | 236 | 2.0 | 5.0 | 0.00 | 0.00 | 0.00 | 71 | 1017.8 |
| 20260904042003 | 78 | 173 | 2.0 | 5.0 | 0.00 | 0.00 | 0.00 | 70 | 1017.8 |
| 20260904041505 | 78 | 173 | 1.0 | 5.0 | 0.00 | 0.00 | 0.00 | 70 | 1017.8 |
| 20260904041004 | 78 | 175 | 1.0 | 5.0 | 0.00 | 0.00 | 0.00 | 70 | 1017.7 |
| 20260904040503 | 78 | 225 | 1.0 | 4.0 | 0.00 | 0.00 | 0.00 | 69 | 1017.8 |
| 20260904040010 | 78 | 178 | 1.0 | 3.0 | 0.00 | 0.00 | 0.00 | 69 | 1017.6 |
| 20260904035517 | 79 | 209 | 1.0 | 4.0 | 0.00 | 0.00 | 0.00 | 69 | 1017.8 |
| 20260904035009 | 79 | 215 | 1.0 | 4.0 | 0.00 | 0.00 | 0.00 | 68 | 1017.9 |
| 20260904034534 | 79 | 213 | 1.0 | 3.0 | 0.00 | 0.00 | 0.00 | 68 | 1017.9 |
| 20260904034007 | 79 | 198 | 1.0 | 3.0 | 0.00 | 0.00 | 0.00 | 68 | 1017.9 |
| 20260904033510 | 79 | 158 | 1.0 | 3.0 | 0.00 | 0.00 | 0.00 | 68 | 1017.9 |
| 20260904033027 | 79 | 211 | 1.0 | 3.0 | 0.00 | 0.00 | 0.00 | 67 | 1018.0 |
| 20260904032511 | 79 | 221 | 1.0 | 3.0 | 0.00 | 0.00 | 0.00 | 67 | 1018.0 |
| 20260904032012 | 79 | 223 | 2.0 | 4.0 | 0.00 | 0.00 | 0.00 | 67 | 1017.9 |
| 20260904031526 | 79 | 209 | 1.0 | 4.0 | 0.00 | 0.00 | 0.00 | 66 | 1017.9 |
| 20260904031013 | 80 | 210 | 1.0 | 5.0 | 0.00 | 0.00 | 0.00 | 66 | 1017.9 |
| 20260904030504 | 80 | 190 | 2.0 | 5.0 | 0.00 | 0.00 | 0.00 | 66 | 1017.9 |
| 20260904030050 | 80 | 206 | 2.0 | 4.0 | 0.00 | 0.00 | 0.00 | 66 | 1017.9 |
| 20260904025504 | 80 | 194 | 2.0 | 4.0 | 0.00 | 0.00 | 0.00 | 65 | 1017.8 |
| 20260904025005 | 80 | 225 | 2.0 | 4.0 | 0.00 | 0.00 | 0.00 | 65 | 1017.7 |
| 20260904024512 | 80 | 191 | 2.0 | 4.0 | 0.00 | 0.00 | 0.00 | 65 | 1017.7 |
| 20260904024010 | 80 | 223 | 1.0 | 3.0 | 0.00 | 0.00 | 0.00 | 65 | 1017.6 |
| 20260904023508 | 80 | 184 | 1.0 | 3.0 | 0.00 | 0.00 | 0.00 | 64 | 1017.6 |
| 20260904023016 | 81 | 220 | 1.0 | 4.0 | 0.00 | 0.00 | 0.00 | 64 | 1017.5 |
| 20260904022507 | 81 | 194 | 2.0 | 4.0 | 0.00 | 0.00 | 0.00 | 64 | 1017.5 |
| 20260904022016 | 81 | 216 | 1.0 | 3.0 | 0.00 | 0.00 | 0.00 | 63 | 1017.3 |
| 20260904021531 | 81 | 213 | 0.0 | 4.0 | 0.00 | 0.00 | 0.00 | 63 | 1017.3 |
| 20260904021012 | 81 | 198 | 1.0 | 4.0 | 0.00 | 0.00 | 0.00 | 63 | 1017.2 |
| 20260904020513 | 81 | 202 | 0.0 | 6.0 | 0.00 | 0.00 | 0.00 | 62 | 1017.4 |
| 20260904020029 | 81 | 222 | 1.0 | 6.0 | 0.00 | 0.00 | 0.00 | 62 | 1017.5 |
| 20260904015517 | 82 | 209 | 1.0 | 5.0 | 0.00 | 0.00 | 0.00 | 62 | 1017.4 |
| 20260904015006 | 82 | 208 | 2.0 | 4.0 | 0.00 | 0.00 | 0.00 | 62 | 1017.3 |
| 20260904014513 | 82 | 196 | 1.0 | 3.0 | 0.00 | 0.00 | 0.00 | 62 | 1017.3 |
| 20260904014008 | 82 | 210 | 1.0 | 3.0 | 0.00 | 0.00 | 0.00 | 61 | 1017.2 |
| 20260904013505 | 82 | 223 | 0.0 | 3.0 | 0.00 | 0.00 | 0.00 | 61 | 1017.1 |
| 20260904013013 | 82 | 193 | 1.0 | 4.0 | 0.00 | 0.00 | 0.00 | 61 | 1017.0 |
| 20260904012511 | 82 | 221 | 1.0 | 4.0 | 0.00 | 0.00 | 0.00 | 61 | 1016.9 |
| 20260904012008 | 83 | 166 | 1.0 | 5.0 | 0.00 | 0.00 | 0.00 | 60 | 1016.8 |
| 20260904011537 | 83 | 165 | 1.0 | 6.0 | 0.00 | 0.00 | 0.00 | 60 | 1016.8 |
| 20260904011015 | 83 | 177 | 1.0 | 6.0 | 0.00 | 0.00 | 0.00 | 60 | 1016.7 |
| 20260904010511 | 83 | 176 | 1.0 | 4.0 | 0.00 | 0.00 | 0.00 | 60 | 1016.6 |
| 20260904010028 | 84 | 238 | 1.0 | 6.0 | 0.00 | 0.00 | 0.00 | 59 | 1016.6 |
| 20260904005512 | 84 | 202 | 2.0 | 6.0 | 0.00 | 0.00 | 0.00 | 59 | 1016.6 |
| 20260904005016 | 84 | 155 | 2.0 | 6.0 | 0.00 | 0.00 | 0.00 | 58 | 1016.7 |
| 20260904004530 | 85 | 138 | 2.0 | 6.0 | 0.00 | 0.00 | 0.00 | 58 | 1016.9 |
| 20260904004003 | 85 | 230 | 1.0 | 3.0 | 0.00 | 0.00 | 0.00 | 57 | 1016.8 |
| 20260904003504 | 86 | 210 | 0.0 | 5.0 | 0.00 | 0.00 | 0.00 | 56 | 1016.8 |
| 20260904003013 | 86 | 118 | 1.0 | 5.0 | 0.00 | 0.00 | 0.00 | 56 | 1016.9 |
| 20260904002508 | 86 | 137 | 1.0 | 3.0 | 0.00 | 0.00 | 0.00 | 55 | 1016.8 |
| 20260904002007 | 87 | 151 | 0.0 | 5.0 | 0.00 | 0.00 | 0.00 | 54 | 1016.7 |
| 20260904001535 | 87 | 170 | 0.0 | 5.0 | 0.00 | 0.00 | 0.00 | 53 | 1016.7 |
| 20260904001011 | 88 | 196 | 2.0 | 5.0 | 0.00 | 0.00 | 0.00 | 52 | 1016.6 |
| 20260904000518 | 88 | 207 | 1.0 | 3.0 | 0.00 | 0.00 | 0.00 | 52 | 1016.5 |
| 20260904000030 | 88 | 127 | 1.0 | 5.0 | 0.00 | 0.00 | 0.00 | 52 | 1016.6 |
| 20260903235513 | 88 | 205 | 1.0 | 8.0 | 0.00 | 0.00 | 0.00 | 51 | 1016.7 |
| 20260903235014 | 89 | 171 | 4.0 | 8.0 | 0.00 | 0.00 | 0.00 | 51 | 1016.8 |
| 20260903234531 | 89 | 187 | 1.0 | 6.0 | 0.00 | 0.00 | 0.00 | 50 | 1016.7 |
| 20260903234015 | 89 | 169 | 3.0 | 6.0 | 0.00 | 0.00 | 0.00 | 49 | 1016.8 |
| 20260903233518 | 89 | 204 | 1.0 | 7.0 | 0.00 | 0.00 | 0.00 | 49 | 1016.6 |
| 20260903233036 | 90 | 136 | 2.0 | 7.0 | 0.00 | 0.00 | 0.00 | 49 | 1016.5 |
| 20260903232508 | 90 | 117 | 2.0 | 7.0 | 0.00 | 0.00 | 0.00 | 48 | 1016.5 |
| 20260903232018 | 90 | 172 | 2.0 | 9.0 | 0.00 | 0.00 | 0.00 | 48 | 1016.7 |
| 20260903231542 | 90 | 140 | 4.0 | 11.0 | 0.00 | 0.00 | 0.00 | 47 | 1016.7 |
| 20260903231010 | 90 | 163 | 4.0 | 11.0 | 0.00 | 0.00 | 0.00 | 47 | 1016.7 |
| 20260903230510 | 91 | 195 | 3.0 | 8.0 | 0.00 | 0.00 | 0.00 | 47 | 1016.6 |
| 20260903230022 | 91 | 102 | 3.0 | 8.0 | 0.00 | 0.00 | 0.00 | 46 | 1016.5 |
| 20260903225519 | 91 | 142 | 1.0 | 10.0 | 0.00 | 0.00 | 0.00 | 46 | 1016.4 |
| 20260903225014 | 91 | 169 | 3.0 | 10.0 | 0.00 | 0.00 | 0.00 | 46 | 1016.6 |
| 20260903224538 | 91 | 109 | 3.0 | 9.0 | 0.00 | 0.00 | 0.00 | 45 | 1016.7 |
| 20260903224016 | 92 | 190 | 4.0 | 8.0 | 0.00 | 0.00 | 0.00 | 45 | 1016.7 |
| 20260903223518 | 92 | 142 | 2.0 | 6.0 | 0.00 | 0.00 | 0.00 | 45 | 1016.7 |
| 20260903223039 | 92 | 130 | 3.0 | 8.0 | 0.00 | 0.00 | 0.00 | 45 | 1016.6 |
| 20260903222519 | 92 | 97 | 4.0 | 8.0 | 0.00 | 0.00 | 0.00 | 46 | 1016.5 |
| 20260903222016 | 92 | 202 | 3.0 | 10.0 | 0.00 | 0.00 | 0.00 | 46 | 1016.4 |
| 20260903221535 | 92 | 179 | 3.0 | 11.0 | 0.00 | 0.00 | 0.00 | 46 | 1016.6 |
| 20260903221009 | 92 | 102 | 4.0 | 11.0 | 0.00 | 0.00 | 0.00 | 46 | 1016.6 |
| 20260903220507 | 93 | 162 | 2.0 | 7.0 | 0.00 | 0.00 | 0.00 | 45 | 1016.6 |
| 20260903220028 | 92 | 234 | 4.0 | 8.0 | 0.00 | 0.00 | 0.00 | 46 | 1016.6 |
| 20260903215512 | 92 | 269 | 3.0 | 10.0 | 0.00 | 0.00 | 0.00 | 46 | 1016.6 |
| 20260903215012 | 92 | 146 | 5.0 | 12.0 | 0.00 | 0.00 | 0.00 | 46 | 1016.4 |
| 20260903214536 | 91 | 248 | 5.0 | 12.0 | 0.00 | 0.00 | 0.00 | 46 | 1016.6 |
| 20260903214012 | 91 | 205 | 7.0 | 11.0 | 0.00 | 0.00 | 0.00 | 47 | 1016.6 |
| 20260903213515 | 91 | 170 | 6.0 | 11.0 | 0.00 | 0.00 | 0.00 | 47 | 1016.7 |
| 20260903213034 | 91 | 5 | 2.0 | 8.0 | 0.00 | 0.00 | 0.00 | 47 | 1016.8 |
| 20260903212516 | 91 | 196 | 3.0 | 8.0 | 0.00 | 0.00 | 0.00 | 47 | 1016.8 |
| 20260903212020 | 91 | 311 | 3.0 | 12.0 | 0.00 | 0.00 | 0.00 | 46 | 1016.7 |
| 20260903211542 | 91 | 135 | 7.0 | 12.0 | 0.00 | 0.00 | 0.00 | 46 | 1016.6 |
| 20260903211019 | 91 | 131 | 2.0 | 11.0 | 0.00 | 0.00 | 0.00 | 47 | 1016.6 |
| 20260903210519 | 92 | 183 | 5.0 | 11.0 | 0.00 | 0.00 | 0.00 | 46 | 1016.9 |
| 20260903210019 | 92 | 177 | 6.0 | 11.0 | 0.00 | 0.00 | 0.00 | 44 | 1017.0 |
| 20260903205507 | 93 | 187 | 3.0 | 10.0 | 0.00 | 0.00 | 0.00 | 44 | 1017.0 |
| 20260903205004 | 93 | 185 | 2.0 | 10.0 | 0.00 | 0.00 | 0.00 | 45 | 1017.0 |
| 20260903204503 | 93 | 211 | 5.0 | 10.0 | 0.00 | 0.00 | 0.00 | 44 | 1017.0 |
| 20260903204002 | 93 | 105 | 4.0 | 14.0 | 0.00 | 0.00 | 0.00 | 45 | 1016.8 |
| 20260903203503 | 93 | 126 | 6.0 | 14.0 | 0.00 | 0.00 | 0.00 | 45 | 1016.8 |
| 20260903203007 | 93 | 186 | 7.0 | 12.0 | 0.00 | 0.00 | 0.00 | 45 | 1017.2 |
| 20260903202503 | 93 | 148 | 4.0 | 14.0 | 0.00 | 0.00 | 0.00 | 45 | 1017.2 |
| 20260903202006 | 93 | 222 | 6.0 | 14.0 | 0.00 | 0.00 | 0.00 | 45 | 1017.3 |
| 20260903201506 | 92 | 228 | 4.0 | 12.0 | 0.00 | 0.00 | 0.00 | 45 | 1017.3 |
| 20260903201003 | 92 | 121 | 6.0 | 12.0 | 0.00 | 0.00 | 0.00 | 46 | 1017.2 |
| 20260903200504 | 93 | 116 | 5.0 | 11.0 | 0.00 | 0.00 | 0.00 | 46 | 1017.2 |
| 20260903200004 | 92 | 198 | 5.0 | 13.0 | 0.00 | 0.00 | 0.00 | 48 | 1017.0 |
| 20260903195503 | 92 | 132 | 3.0 | 13.0 | 0.00 | 0.00 | 0.00 | 48 | 1017.1 |
| 20260903195003 | 92 | 145 | 6.0 | 12.0 | 0.00 | 0.00 | 0.00 | 46 | 1017.3 |
| 20260903194508 | 92 | 180 | 6.0 | 12.0 | 0.00 | 0.00 | 0.00 | 46 | 1017.4 |
| 20260903194003 | 92 | 152 | 4.0 | 13.0 | 0.00 | 0.00 | 0.00 | 47 | 1017.4 |
| 20260903193504 | 92 | 188 | 6.0 | 15.0 | 0.00 | 0.00 | 0.00 | 47 | 1017.5 |
| 20260903193011 | 92 | 144 | 6.0 | 16.0 | 0.00 | 0.00 | 0.00 | 46 | 1017.6 |
| 20260903192503 | 92 | 114 | 4.0 | 16.0 | 0.00 | 0.00 | 0.00 | 46 | 1017.6 |
| 20260903192001 | 92 | 232 | 6.0 | 14.0 | 0.00 | 0.00 | 0.00 | 46 | 1017.6 |
| 20260903191519 | 91 | 155 | 5.0 | 14.0 | 0.00 | 0.00 | 0.00 | 47 | 1017.6 |
| 20260903191004 | 92 | 184 | 7.0 | 12.0 | 0.00 | 0.00 | 0.00 | 46 | 1017.5 |
| 20260903190503 | 92 | 196 | 5.0 | 11.0 | 0.00 | 0.00 | 0.00 | 46 | 1017.4 |
| 20260903190007 | 92 | 188 | 6.0 | 16.0 | 0.00 | 0.00 | 0.00 | 47 | 1017.6 |
| 20260903185502 | 91 | 112 | 5.0 | 16.0 | 0.00 | 0.00 | 0.00 | 47 | 1017.9 |
| 20260903185004 | 91 | 128 | 6.0 | 12.0 | 0.00 | 0.00 | 0.00 | 47 | 1017.9 |
| 20260903184511 | 91 | 105 | 4.0 | 10.0 | 0.00 | 0.00 | 0.00 | 47 | 1018.0 |
| 20260903184004 | 91 | 15 | 4.0 | 14.0 | 0.00 | 0.00 | 0.00 | 48 | 1018.2 |
| 20260903183508 | 90 | 286 | 4.0 | 14.0 | 0.00 | 0.00 | 0.00 | 49 | 1018.2 |
| 20260903183007 | 91 | 119 | 6.0 | 13.0 | 0.00 | 0.00 | 0.00 | 48 | 1018.3 |
| 20260903182503 | 92 | 229 | 5.0 | 11.0 | 0.00 | 0.00 | 0.00 | 47 | 1018.4 |
| 20260903182005 | 92 | 190 | 4.0 | 11.0 | 0.00 | 0.00 | 0.00 | 47 | 1018.4 |
| 20260903181507 | 92 | 176 | 4.0 | 14.0 | 0.00 | 0.00 | 0.00 | 47 | 1018.3 |
| 20260903181004 | 92 | 190 | 5.0 | 15.0 | 0.00 | 0.00 | 0.00 | 46 | 1018.4 |
| 20260903180503 | 92 | 173 | 5.0 | 15.0 | 0.00 | 0.00 | 0.00 | 47 | 1018.4 |
| 20260903180020 | 92 | 172 | 4.0 | 10.0 | 0.00 | 0.00 | 0.00 | 48 | 1018.4 |
| 20260903175505 | 91 | 275 | 5.0 | 10.0 | 0.00 | 0.00 | 0.00 | 48 | 1018.6 |
| 20260903175005 | 90 | 168 | 3.0 | 13.0 | 0.00 | 0.00 | 0.00 | 48 | 1018.7 |
| 20260903174517 | 90 | 185 | 5.0 | 13.0 | 0.00 | 0.00 | 0.00 | 49 | 1018.7 |
| 20260903174001 | 90 | 182 | 6.0 | 12.0 | 0.00 | 0.00 | 0.00 | 49 | 1018.7 |
| 20260903173530 | 90 | 215 | 3.0 | 11.0 | 0.00 | 0.00 | 0.00 | 50 | 1018.7 |
| 20260903173011 | 90 | 209 | 5.0 | 11.0 | 0.00 | 0.00 | 0.00 | 50 | 1018.9 |
| 20260903172506 | 90 | 199 | 4.0 | 12.0 | 0.00 | 0.00 | 0.00 | 51 | 1018.8 |
| 20260903172007 | 90 | 157 | 6.0 | 10.0 | 0.00 | 0.00 | 0.00 | 51 | 1018.9 |
| 20260903171512 | 89 | 241 | 4.0 | 11.0 | 0.00 | 0.00 | 0.00 | 51 | 1018.9 |
| 20260903171003 | 89 | 125 | 4.0 | 11.0 | 0.00 | 0.00 | 0.00 | 51 | 1019.0 |
| 20260903170503 | 90 | 224 | 4.0 | 12.0 | 0.00 | 0.00 | 0.00 | 51 | 1019.0 |
| 20260903170017 | 89 | 209 | 3.0 | 12.0 | 0.00 | 0.00 | 0.00 | 51 | 1019.1 |
| 20260903165504 | 89 | 116 | 4.0 | 13.0 | 0.00 | 0.00 | 0.00 | 51 | 1019.1 |
| 20260903165005 | 89 | 144 | 5.0 | 12.0 | 0.00 | 0.00 | 0.00 | 52 | 1019.1 |
| 20260903164514 | 89 | 145 | 4.0 | 11.0 | 0.00 | 0.00 | 0.00 | 53 | 1019.2 |
| 20260903164007 | 88 | 130 | 5.0 | 9.0 | 0.00 | 0.00 | 0.00 | 53 | 1019.3 |
| 20260903163508 | 88 | 223 | 2.0 | 9.0 | 0.00 | 0.00 | 0.00 | 53 | 1019.3 |
| 20260903163011 | 88 | 200 | 3.0 | 9.0 | 0.00 | 0.00 | 0.00 | 53 | 1019.4 |
| 20260903162506 | 88 | 229 | 1.0 | 9.0 | 0.00 | 0.00 | 0.00 | 55 | 1019.4 |